Tracking 22130 objects as of 21-Jan-2021
HD Live streaming from Space Station
objects crossing your sky now

DESCENT

Track DESCENT now!
10-day predictions


NORAD ID: 46924
Int'l Code: 1998-067RU
Perigee: 414.7 km
Apogee: 416.1 km
Inclination: 51.6 °
Period: 92.7 minutes
Semi major axis: 6786 km
RCS: Unknown
Launch date: November 20, 1998
Source: United States (US)
Launch site: TYURATAM MISSILE AND SPACE COMPLEX (TTMTR)
aabbcc
Your satellite tracking list
Your tracking list is empty




NASA's NSSDC Master Catalog

Two Line Element Set (TLE):
1 46924U 98067RU  21020.93733670  .00015328  00000-0  24907-3 0  9992
2 46924  51.6434 349.7231 0001053   0.5837 359.5155 15.52902400 11947
Source of the keplerian elements: AFSPC